This demonstration page uses our WeatherBlox Daily Observations layout. Learn more.

Hourly Observations for June 4, 2015

Temp ( °F °C ) Dew Point ( °F °C ) Humidity (%) Winds ( mph kmh ) Pressure ( in mb ) Visibility ( mi km ) Precip ( " mm )
12:15 am 00:15 Mostly Cloudy with Nearby Thunderstorms 70 21 63 17 78 78 E 7 11 29.85 1011 10 16.09344 0 0
12:35 am 00:35 Cloudy 70 21 64 18 83 83 NE 8 13 29.83 1010 10 16.09344 0 0
12:55 am 00:55 Cloudy 68 20 64 18 88 88 ENE 9 15 29.85 1011 10 16.09344 0 0
1:15 am 01:15 Cloudy with Nearby Thunderstorms 68 20 64 18 88 88 E 6 9 29.83 1010 10 16.09344 0 0
1:35 am 01:35 Mostly Cloudy with Nearby Thunderstorms 68 20 64 18 88 88 E 9 15 29.8 1009 10 16.09344 0 0
1:55 am 01:55 Cloudy 68 20 64 18 88 88 ENE 13 20 29.83 1010 10 16.09344 0 0
2:15 am 02:15 Mostly Cloudy 68 20 64 18 88 88 E 9 15 29.83 1010 10 16.09344 0 0
2:35 am 02:35 Mostly Cloudy 68 20 64 18 88 88 ENE 6 9 29.83 1010 10 16.09344 0 0
2:55 am 02:55 Cloudy 66 19 63 17 88 88 ENE 8 13 29.83 1010 10 16.09344 0 0
3:15 am 03:15 Cloudy with Nearby Thunderstorms 66 19 63 17 88 88 ENE 10 17 29.83 1010 10 16.09344 0 0
3:35 am 03:35 Cloudy with Nearby Thunderstorms 66 19 64 18 94 94 ENE 12 19 29.83 1010 10 16.09344 0 0
3:55 am 03:55 Cloudy 66 19 64 18 94 94 ENE 12 19 29.83 1010 10 16.09344 0 0
4:15 am 04:15 Cloudy 66 19 64 18 94 94 ENE 9 15 29.83 1010 10 16.09344 0 0
4:35 am 04:35 Cloudy 66 19 64 18 94 94 ENE 12 19 29.83 1010 10 16.09344 0 0
4:55 am 04:55 Mostly Cloudy 66 19 63 17 88 88 ENE 9 15 29.83 1010 7 11.265408 0 0
5:15 am 05:15 Partly Cloudy 64 18 63 17 94 94 ENE 12 19 29.85 1011 7 11.265408 0 0
5:35 am 05:35 Clear 64 18 63 17 94 94 ENE 9 15 29.85 1011 7 11.265408 0 0
5:55 am 05:55 Mostly Cloudy 66 19 64 18 94 94 SE 5 7 29.85 1011 7 11.265408 0 0
6:15 am 06:15 Mostly Cloudy with Thunderstorms 66 19 64 18 94 94 Calm 29.85 1011 7 11.265408 0 0
6:35 am 06:35 Mostly Cloudy with Thunderstorms 66 19 64 18 94 94 NNE 16 26 29.85 1011 4 6.437376 0.14 3.556
6:55 am 06:55 Cloudy with Light Rain 64 18 63 17 94 94 NE 28 44 29.74 1007 10 16.09344 0.15 3.81
7:15 am 07:15 Partly Cloudy 64 18 63 17 94 94 ENE 10 17 29.77 1008 10 16.09344 0 0
7:35 am 07:35 Partly Cloudy 64 18 63 17 94 94 SSE 10 17 29.85 1011 10 16.09344 0 0
7:55 am 07:55 Partly Cloudy 64 18 63 17 94 94 ESE 15 24 29.77 1008 10 16.09344 0 0
8:15 am 08:15 Sunny 64 18 63 17 94 94 SE 17 28 29.77 1008 10 16.09344 0 0
8:35 am 08:35 Sunny 66 19 64 18 94 94 SSE 13 20 29.8 1009 10 16.09344 0 0
8:55 am 08:55 Partly Cloudy 66 19 64 18 94 94 SE 12 19 29.8 1009 7 11.265408 0 0
9:15 am 09:15 Mostly Cloudy with Mist and Fog 68 20 64 18 88 88 SE 14 22 29.83 1010 5 8.04672 0 0
9:35 am 09:35 Cloudy 68 20 66 19 94 94 SE 14 22 29.83 1010 7 11.265408 0 0
9:55 am 09:55 Cloudy with Mist and Fog 68 20 66 19 94 94 SE 10 17 29.85 1011 5 8.04672 0 0
10:15 am 10:15 Cloudy 70 21 66 19 88 88 ESE 15 24 29.85 1011 7 11.265408 0 0
10:35 am 10:35 Cloudy 70 21 66 19 88 88 ESE 15 24 29.85 1011 7 11.265408 0 0
10:55 am 10:55 Cloudy 70 21 66 19 88 88 ESE 16 26 29.85 1011 7 11.265408 0 0
11:15 am 11:15 Cloudy 68 20 66 19 94 94 ESE 17 28 29.85 1011 7 11.265408 0 0
11:35 am 11:35 Cloudy 70 21 66 19 88 88 SE 15 24 29.88 1012 10 16.09344 0 0
11:55 am 11:55 Cloudy 70 21 66 19 88 88 ESE 16 26 29.88 1012 10 16.09344 0 0
12:15 pm 12:15 Cloudy 70 21 66 19 88 88 SE 15 24 29.88 1012 7 11.265408 0 0
12:35 pm 12:35 Cloudy 70 21 66 19 88 88 SE 12 19 29.88 1012 10 16.09344 0 0
12:55 pm 12:55 Cloudy 70 21 66 19 88 88 SE 10 17 29.88 1012 10 16.09344 0 0
1:15 pm 13:15 Cloudy 72 22 66 19 83 83 SE 12 19 29.88 1012 10 16.09344 0 0
1:35 pm 13:35 Cloudy 70 21 66 19 88 88 SE 10 17 29.91 1013 10 16.09344 0 0
1:55 pm 13:55 Cloudy 72 22 66 19 83 83 ESE 10 17 29.88 1012 10 16.09344 0 0
2:15 pm 14:15 Cloudy 70 21 66 19 88 88 SE 5 7 29.88 1012 10 16.09344 0 0
2:35 pm 14:35 Cloudy 70 21 66 19 88 88 ESE 7 11 29.88 1012 10 16.09344 0 0
2:55 pm 14:55 Cloudy 72 22 66 19 83 83 E 10 17 29.88 1012 10 16.09344 0 0
3:15 pm 15:15 Cloudy 72 22 66 19 83 83 E 10 17 29.88 1012 10 16.09344 0 0
3:35 pm 15:35 Cloudy 72 22 66 19 83 83 E 12 19 29.88 1012 10 16.09344 0 0
3:55 pm 15:55 Cloudy 72 22 66 19 83 83 E 14 22 29.88 1012 10 16.09344 0 0
4:15 pm 16:15 Cloudy 72 22 66 19 83 83 ESE 13 20 29.88 1012 10 16.09344 0 0
4:35 pm 16:35 Cloudy 75 24 66 19 74 74 ESE 20 31 29.83 1010 10 16.09344 0 0
4:55 pm 16:55 Mostly Cloudy 75 24 66 19 74 74 ESE 18 30 29.83 1010 10 16.09344 0 0
5:15 pm 17:15 Partly Cloudy 75 24 66 19 74 74 E 18 30 29.83 1010 10 16.09344 0 0
5:35 pm 17:35 Sunny 77 25 66 19 69 69 ESE 20 31 29.8 1009 10 16.09344 0 0
5:55 pm 17:55 Sunny 77 25 68 20 74 74 ESE 17 28 29.8 1009 10 16.09344 0 0
6:15 pm 18:15 Partly Cloudy 77 25 68 20 74 74 ESE 14 22 29.8 1009 10 16.09344 0 0
6:35 pm 18:35 Partly Cloudy 77 25 68 20 74 74 E 10 17 29.8 1009 10 16.09344 0 0
6:55 pm 18:55 Cloudy 77 25 68 20 74 74 E 10 17 29.83 1010 10 16.09344 0 0
7:15 pm 19:15 Cloudy 75 24 68 20 78 78 E 8 13 29.83 1010 10 16.09344 0 0
7:35 pm 19:35 Cloudy 75 24 68 20 78 78 E 10 17 29.83 1010 10 16.09344 0 0
7:55 pm 19:55 Cloudy 73 23 68 20 83 83 ENE 12 19 29.83 1010 10 16.09344 0 0
8:15 pm 20:15 Cloudy 72 22 68 20 88 88 ENE 12 19 29.85 1011 10 16.09344 0 0
8:35 pm 20:35 Mostly Cloudy with Nearby Thunderstorms 72 22 66 19 83 83 ENE 10 17 29.85 1011 10 16.09344 0 0
8:55 pm 20:55 Partly Cloudy 70 21 66 19 88 88 ENE 9 15 29.85 1011 10 16.09344 0 0
9:15 pm 21:15 Mostly Cloudy with Nearby Thunderstorms 70 21 66 19 88 88 ENE 13 20 29.88 1012 10 16.09344 0 0
9:35 pm 21:35 Cloudy 70 21 66 19 88 88 ENE 13 20 29.85 1011 10 16.09344 0 0
9:55 pm 21:55 Cloudy 70 21 64 18 83 83 ENE 14 22 29.88 1012 10 16.09344 0 0
10:15 pm 22:15 Cloudy 68 20 64 18 88 88 ENE 13 20 29.88 1012 10 16.09344 0 0
10:35 pm 22:35 Cloudy with Nearby Thunderstorms 68 20 64 18 88 88 ENE 12 19 29.91 1013 10 16.09344 0 0
10:55 pm 22:55 Cloudy with Thunderstorms 68 20 64 18 88 88 ENE 14 22 29.88 1012 10 16.09344 0 0
11:15 pm 23:15 Cloudy 68 20 63 17 83 83 ENE 23 37 29.88 1012 10 16.09344 0 0
11:35 pm 23:35 Cloudy with Light Thunderstorms 66 19 63 17 88 88 E 12 19 29.94 1014 2.5 4.02336 0.2 5.08
11:55 pm 23:55 Cloudy with Heavy Thunderstorms 64 18 63 17 94 94 ESE 8 13 30 1016 4 6.437376 0.31 7.874

Powered by AerisWeather